Tracking 30995 objects as of 5-Jul-2025
HD Live streaming from Space Station
objects crossing your sky now

SL-14 DEB

Track SL-14 DEB now!
10-day predictions


NORAD ID: 45305
Int'l Code: 1991-056AT
Perigee: 1,128.8 km
Apogee: 1,168.5 km
Inclination: 82.6 °
Period: 108.2 minutes
Semi major axis: 7519 km
RCS: Unknown
Launch date: August 15, 1991
Source: Commonwealth of Independent States (former USSR) (CIS)
Launch site: PLESETSK MISSILE AND SPACE COMPLEX (PKMTR)

Note: This is SATELLITE DEBRIS
Your satellite tracking list
Your tracking list is empty




NASA's NSSDC Master Catalog

Two Line Element Set (TLE):
1 45305U 91056AT  25184.46449538  .00001790  00000-0  37199-2 0  9999
2 45305  82.5691   6.6590 0026342 103.1452 257.2621 13.31394291259028
Source of the keplerian elements: AFSPC